Погода в Санта-Крус-де-Ла-Пальма

Испания     28°41′01″N   17°45′48″W
темп.,
°C
ветер,
м/с
пор.,
м/с
влажн.,
%
обл.,
%
осадки,
мм/ч
давл.,
гПа
погр.,
м
26 февраля, пт
пт2600:00+12св810794 0.0 1029790
03:00+12св810817 0.0 1028849
06:00+12св898215 0.0 1027907
09:00+13св897844 0.0 1028903
12:00+14св897235 0.1 1028992
15:00+14св887235 0.0 10261006
18:00+14св787232 0.0 1026976
21:00+14св898050 0.1 1027963
27 февраля, сб
сб2700:00+13св998449 0.2 1027842
03:00+12св888147 0.1 1025841
06:00+12ссв787865 0.1 1024887
09:00+12св777796 0.1 1024872
12:00+13ссв677196 0.1 1025985
15:00+13с567163 0.1 1022854
18:00+13ссв667364 0.1 1021847
21:00+13ссз667538 0.0 1021755
28 февраля, вс
вс2800:00+13с557142 0.1 1021910
03:00+12с457824 0.0 1019563
06:00+13ссв668121 0.1 1017702
09:00+13с457726 0.0 1018538
12:00+15с667624 0.1 1018772
15:00+15ссв567745 0.4 1016717
18:00+15с567846 0.7 1016685
21:00+14с568130 0.1 1018618
1 марта, пн
пн100:00+14ссв668516 0.3 1018629
03:00+14ссв668441 0.3 1017691
06:00+14с568342 0.6 1017601
09:00+14с45769 0.0 1018580
12:00+15св557712 0.1 1020713
15:00+14св557949 0.1 1018622
18:00+14св557948 0.3 1018712
21:00+14св558280 0.1 1021709
2 марта, вт
вт200:00+14св558078 0.2 1021671
03:00+13св457734 0.0 1021722
06:00+13всв457731 0.0 1020728
09:00+13всв457819 0.0 1022664
12:00+14всв447530 0.0 1023720
15:00+14всв437541 0.0 1021612
18:00+14св337449 0.0 1021673
21:00+13св347797 0.0 1022702